Rogers City, MI

9:03 AM EDT on May 28, 2017 (GMT -0400)
Presque Isle County

Weather History for KPZQ - October, 2012

Change the Weather History Date:

Monday, October 29, 2012

  Actual Average (KAPN) Record (KAPN)
Temperature  
Mean Temperature 41 °F -  
Max Temperature 43 °F 49 °F 73 °F (1989)
Min Temperature 39 °F 31 °F 16 °F (1965)
Degree Days  
Heating Degree Days 24    
Moisture  
Dew Point 24 °F    
Average Humidity 52    
Maximum Humidity 62    
Minimum Humidity 38    
Precipitation  
Precipitation 0.00 in - - ()
Sea Level Pressure  
Sea Level Pressure 30.18 in    
Wind  
Wind Speed 16 mph (North)    
Max Wind Speed 25 mph    
Max Gust Speed 37 mph    
Visibility 10 miles    
Events      
Averages and records for this station are not official NWS values.
T = Trace of Precipitation, MM = Missing Value Source: NWS Daily Summary

Daily Weather History Graph

Daily Weather History Graph

Search for Another Location

Airport or City:

Trip Planner

Search our weather history database for the weather conditions in past years. The results will help you decide how hot, cold, wet, or windy it might be!

Date:

Astronomy

Oct. 29, 2012 Rise Set
Actual Time 8:11 AM EDT 6:26 PM EDT
Civil Twilight 7:40 AM EDT 6:56 PM EDT
Nautical Twilight 7:05 AM EDT 7:31 PM EDT
Astronomical Twilight 6:31 AM EDT 8:05 PM EDT
Moon 6:15 PM EDT (10/29) 8:01 AM EDT (10/29)
Length of Visible Light 11h 16m
Length of Day
10h 15m
Full, 100% of the Moon is Illuminated
Oct 29
Full
Oct 29
Full
Nov 6
Last Quarter
Nov 13
New
Nov 20
First Quarter

Hourly Weather History & Observations

Time (EDT) Temp. Windchill Dew Point Humidity Pressure Visibility Wind Dir Wind Speed Gust Speed Precip Events Conditions
12:14 AM 41.9 °F 34.6 °F 23.7 °F 49% 30.25 in 10.0 mi North 13.8 mph 21.9 mph N/A   Clear
12:34 AM 41.5 °F 34.2 °F 23.9 °F 50% 30.25 in 10.0 mi North 13.8 mph 21.9 mph N/A   Clear
12:54 AM 41.2 °F 33.7 °F 23.0 °F 48% 30.26 in 10.0 mi North 13.8 mph 23.0 mph N/A   Clear
1:15 AM 41.0 °F 33.1 °F 23.5 °F 50% 30.25 in 10.0 mi North 15.0 mph 20.7 mph N/A   Clear
1:34 AM 41.0 °F 33.9 °F 23.0 °F 49% 30.25 in 10.0 mi North 12.7 mph 23.0 mph N/A   Clear
1:54 AM 40.8 °F 34.5 °F 22.5 °F 48% 30.25 in 10.0 mi North 10.4 mph 23.0 mph N/A   Clear
2:15 AM 40.6 °F 32.3 °F 21.9 °F 47% 30.25 in 10.0 mi North 16.1 mph 24.2 mph N/A   Clear
2:34 AM 40.5 °F 33.2 °F 22.6 °F 49% 30.24 in 10.0 mi North 12.7 mph 19.6 mph N/A   Clear
2:54 AM 40.3 °F 32.6 °F 22.8 °F 50% 30.24 in 10.0 mi North 13.8 mph 21.9 mph N/A   Clear
3:15 AM 40.3 °F 31.6 °F 23.5 °F 51% 30.23 in 10.0 mi North 17.3 mph 20.7 mph N/A   Clear
3:34 AM 40.1 °F 32.0 °F 23.5 °F 52% 30.23 in 10.0 mi North 15.0 mph 23.0 mph N/A   Clear
3:54 AM 40.1 °F 32.0 °F 23.2 °F 51% 30.23 in 10.0 mi North 15.0 mph 21.9 mph N/A   Clear
4:14 AM 40.1 °F 31.3 °F 24.1 °F 53% 30.23 in 10.0 mi North 17.3 mph 23.0 mph N/A   Clear
4:34 AM 39.9 °F 31.4 °F 24.3 °F 54% 30.23 in 10.0 mi North 16.1 mph 23.0 mph N/A   Clear
4:55 AM 39.7 °F 30.9 °F 24.4 °F 54% 30.23 in 10.0 mi North 17.3 mph 23.0 mph N/A   Clear
5:14 AM 39.7 °F 31.2 °F 24.4 °F 54% 30.23 in 10.0 mi North 16.1 mph 23.0 mph N/A   Clear
5:34 AM 39.7 °F 32.7 °F 25.5 °F 57% 30.23 in 10.0 mi North 11.5 mph 19.6 mph N/A   Clear
5:55 AM 39.4 °F 30.7 °F 25.0 °F 56% 30.23 in 10.0 mi North 16.1 mph 23.0 mph N/A   Clear
6:14 AM 39.4 °F 31.1 °F 25.7 °F 58% 30.23 in 10.0 mi North 15.0 mph 20.7 mph N/A   Clear
6:55 AM 39.4 °F 31.8 °F 25.9 °F 58% 30.24 in 10.0 mi North 12.7 mph 24.2 mph N/A   Clear
7:14 AM 39.2 °F 31.2 °F 25.9 °F 59% 30.24 in 10.0 mi North 13.8 mph 21.9 mph N/A   Clear
7:34 AM 39.2 °F 31.6 °F 26.2 °F 60% 30.24 in 10.0 mi North 12.7 mph 20.7 mph N/A   Clear
7:55 AM 39.2 °F 31.2 °F 26.2 °F 60% 30.24 in 10.0 mi North 13.8 mph 23.0 mph N/A   Clear
8:14 AM 39.2 °F 30.2 °F 26.4 °F 60% 30.24 in 10.0 mi North 17.3 mph 24.2 mph N/A   Clear
8:35 AM 39.2 °F 30.5 °F 26.4 °F 60% 30.24 in 10.0 mi North 16.1 mph 24.2 mph N/A   Clear
8:54 AM 39.4 °F 31.4 °F 27.1 °F 62% 30.24 in 10.0 mi North 13.8 mph 23.0 mph N/A   Clear
9:15 AM 39.4 °F 30.7 °F 27.1 °F 62% 30.24 in 10.0 mi North 16.1 mph 21.9 mph N/A   Clear
9:34 AM 39.6 °F 31.7 °F 26.6 °F 60% 30.24 in 10.0 mi North 13.8 mph 23.0 mph N/A   Clear
9:54 AM 39.7 °F 30.9 °F 27.1 °F 61% 30.24 in 10.0 mi North 17.3 mph 23.0 mph N/A   Clear
10:14 AM 39.9 °F 32.1 °F 26.4 °F 59% 30.23 in 10.0 mi North 13.8 mph 25.3 mph N/A   Clear
10:34 AM 40.1 °F 31.6 °F 26.4 °F 58% 30.23 in 10.0 mi North 16.1 mph 23.0 mph N/A   Clear
10:55 AM 40.3 °F 32.2 °F 26.6 °F 58% 30.23 in 10.0 mi North 15.0 mph 23.0 mph N/A   Clear
11:14 AM 40.6 °F 32.0 °F 26.4 °F 57% 30.23 in 10.0 mi North 17.3 mph 24.2 mph N/A   Clear
11:34 AM 41.0 °F 33.1 °F 26.1 °F 55% 30.23 in 10.0 mi North 15.0 mph 24.2 mph N/A   Clear
11:54 AM 41.2 °F 34.1 °F 26.2 °F 55% 30.23 in 10.0 mi North 12.7 mph 21.9 mph N/A   Clear
12:14 PM 41.4 °F 34.0 °F 26.2 °F 55% 30.22 in 10.0 mi North 13.8 mph 21.9 mph N/A   Clear
12:35 PM 41.9 °F 34.3 °F 26.2 °F 54% 30.21 in 10.0 mi North 15.0 mph 23.0 mph N/A   Clear
12:54 PM 41.9 °F 33.4 °F 26.2 °F 54% 30.20 in 10.0 mi North 18.4 mph 23.0 mph N/A   Clear
1:35 PM 42.3 °F 34.8 °F 26.1 °F 53% 30.19 in 10.0 mi North 15.0 mph 25.3 mph N/A   Clear
1:54 PM 42.3 °F 34.8 °F 26.4 °F 54% 30.19 in 10.0 mi NNW 15.0 mph 26.5 mph N/A   Clear
2:14 PM 42.8 °F 34.5 °F 26.4 °F 52% 30.18 in 10.0 mi NNW 18.4 mph 25.3 mph N/A   Clear
2:34 PM 42.6 °F 34.9 °F 26.1 °F 52% 30.18 in 10.0 mi NNW 16.1 mph 24.2 mph N/A   Clear
2:54 PM 42.6 °F 34.6 °F 25.3 °F 51% 30.16 in 10.0 mi NNW 17.3 mph 24.2 mph N/A   Clear
3:14 PM 42.8 °F 35.1 °F 24.8 °F 49% 30.16 in 10.0 mi North 16.1 mph 24.2 mph N/A   Clear
3:34 PM 43.2 °F 35.6 °F 25.5 °F 50% 30.16 in 10.0 mi NNW 16.1 mph 21.9 mph N/A   Clear
3:55 PM 43.3 °F 35.5 °F 24.6 °F 48% 30.15 in 10.0 mi NNW 17.3 mph 25.3 mph N/A   Clear
4:14 PM 43.0 °F 35.1 °F 24.1 °F 47% 30.15 in 10.0 mi NNW 17.3 mph 24.2 mph N/A   Clear
4:34 PM 43.7 °F 36.9 °F 22.6 °F 43% 30.14 in 10.0 mi NNW 13.8 mph 24.2 mph N/A   Clear
4:54 PM 43.3 °F 34.7 °F 20.8 °F 41% 30.14 in 10.0 mi North 20.7 mph 25.3 mph N/A   Clear
5:14 PM 43.2 °F 35.6 °F 21.0 °F 41% 30.13 in 10.0 mi NNW 16.1 mph 25.3 mph N/A   Clear
5:35 PM 43.0 °F 35.1 °F 20.3 °F 40% 30.12 in 10.0 mi North 17.3 mph 26.5 mph N/A   Clear
5:54 PM 42.8 °F 34.8 °F 18.7 °F 38% 30.12 in 10.0 mi North 17.3 mph 28.8 mph N/A   Clear
6:14 PM 42.6 °F 34.3 °F 19.4 °F 39% 30.11 in 10.0 mi North 18.4 mph 31.1 mph N/A   Clear
6:34 PM 42.3 °F 34.1 °F 19.8 °F 41% 30.10 in 10.0 mi NNW 17.3 mph 28.8 mph N/A   Clear
6:54 PM 42.3 °F 32.6 °F 20.1 °F 41% 30.10 in 10.0 mi North 24.2 mph 31.1 mph N/A   Clear
7:14 PM 42.1 °F 33.3 °F 21.0 °F 43% 30.10 in 10.0 mi North 19.6 mph 31.1 mph N/A   Clear
7:34 PM 41.9 °F 33.7 °F 21.6 °F 44% 30.10 in 10.0 mi North 17.3 mph 27.6 mph N/A   Clear
7:54 PM 41.5 °F 32.4 °F 21.2 °F 44% 30.09 in 10.0 mi North 20.7 mph 32.2 mph N/A   Clear
8:14 PM 41.9 °F 33.4 °F 22.6 °F 46% 30.10 in 10.0 mi North 18.4 mph 31.1 mph N/A   Clear
8:34 PM 41.4 °F 32.4 °F 22.3 °F 47% 30.10 in 10.0 mi North 19.6 mph 27.6 mph N/A   Clear
8:54 PM 41.0 °F 31.4 °F 22.8 °F 48% 30.09 in 10.0 mi North 21.9 mph 29.9 mph N/A   Clear
9:14 PM 40.6 °F 30.7 °F 22.5 °F 48% 30.08 in 10.0 mi North 23.0 mph 32.2 mph N/A   Clear
9:35 PM 40.3 °F 31.0 °F 23.5 °F 51% 30.08 in 10.0 mi North 19.6 mph 29.9 mph N/A   Clear
9:54 PM 40.1 °F 29.5 °F 23.4 °F 51% 30.07 in 10.0 mi North 25.3 mph 32.2 mph N/A   Clear
10:14 PM 39.7 °F 30.6 °F 24.4 °F 54% 30.05 in 10.0 mi North 18.4 mph 28.8 mph N/A   Scattered Clouds
10:34 PM 39.4 °F 28.5 °F 24.4 °F 55% 30.04 in 10.0 mi North 25.3 mph 34.5 mph N/A   Clear
10:54 PM 39.4 °F 29.0 °F 25.7 °F 58% 30.02 in 10.0 mi North 23.0 mph 36.8 mph N/A   Scattered Clouds
11:15 PM 39.2 °F 28.7 °F 26.2 °F 60% 30.01 in 10.0 mi North 23.0 mph 32.2 mph N/A   Mostly Cloudy
11:34 PM 39.2 °F 28.7 °F 26.4 °F 60% 30.01 in 10.0 mi North 23.0 mph 32.2 mph N/A   Overcast
11:54 PM 39.2 °F 29.0 °F 27.3 °F 62% 30.00 in 10.0 mi North 21.9 mph 34.5 mph N/A   Overcast